Location: Hertford
(51.8000°N, 0.0667°W)
Time: 13:05:34
(UTC+00:00)

DMSP B5D2-2 - Pass Details

Date: 18 September 2020
Orbit: 790 x 806 km, 98.3° (Epoch: 25 October)

Event Time Altitude Azimuth Distance (km) Brightness Sun altitude
Rises 20:18:11 0° 13° (NNE) 3,335 7.5 -20.1°
Reaches altitude 10° 20:20:32 10° 12° (NNE) 2,400 6.8 -20.4°
Maximum altitude 20:25:49 74° 289° (WNW) 842 4.3 -21.1°
Drops below altitude 10° 20:31:05 10° 204° (SSW) 2,382 6.4 -21.8°
Sets 20:33:25 0° 203° (SSW) 3,308 7.2 -22.1°
